Date String (YYYY-MM-DD hh:mm:ss) UTC,Instrument flags,absolute air pressure of the measurement (hPa),sample flow rate (lpm),inlet stack bypass flow (lpm),air temperature of the measurement (°C),ambient temperature measured by the external sensor (°C),aerosol sample conditioner tube jacket temperature (°C),OPC LED temperature (°C),internal box temperature (°C),relative humidity of the measurement (%),span deviation,mass concentration of particles derived from Lorenz-Mie calculation of OPC scattering (μg/m³),mass concentration of particles derived from Lorenz-Mie calculation of OPC scattering (μg/m³),mass concentration of particles derived from Lorenz-Mie calculation of OPC scattering (μg/m³)
DateTimeUTC,F1_M11,P_M11,Q1_M11,Q2_M11,T1_M11,T2_M11,T3_M11,T4_M11,T5_M11,U1_M11,ZSPAN_M11,X0_M11,X2_M11,X1_M11
2023-12-03 10:00:00,SystemResetWarning,0818.0,4.99,000.00,018.7,017.6,000.0,027.2,020.0,16.5,0000.0,0004.03,0000.69,0000.29
2023-12-03 10:01:00,SystemResetWarning,0818.0,5.00,000.00,018.7,017.6,000.0,027.2,020.0,16.8,0000.0,0004.21,0000.72,0000.30
2023-12-03 10:02:00,SystemResetWarning,0818.0,5.01,000.00,018.7,017.6,000.0,027.2,020.0,16.7,0000.0,0004.73,0000.67,0000.30
2023-12-03 10:03:00,SystemResetWarning,0818.0,5.01,000.00,018.7,017.6,000.0,027.2,020.0,17.0,0000.0,0003.77,0000.63,0000.29
2023-12-03 10:04:00,SystemResetWarning,0818.0,5.00,000.00,018.7,017.6,000.0,027.2,020.0,17.2,0000.0,0003.97,0000.63,0000.28
2023-12-03 10:05:00,SystemResetWarning,0818.0,5.00,000.00,018.7,017.6,000.0,027.2,020.0,17.2,0000.0,0004.04,0000.64,0000.29
2023-12-03 10:06:00,SystemResetWarning,0818.0,5.00,000.00,018.7,017.6,000.0,027.2,020.0,17.3,0000.0,0004.44,0000.64,0000.28
2023-12-03 10:07:00,SystemResetWarning,0818.0,5.00,000.00,018.7,017.6,000.0,027.2,020.0,17.3,0000.0,0005.24,0000.63,0000.28
2023-12-03 10:08:00,SystemResetWarning,0818.0,5.00,000.00,018.7,017.6,000.0,027.2,020.0,17.3,0000.0,0005.17,0000.60,0000.28
2023-12-03 10:09:00,SystemResetWarning,0818.0,5.00,000.00,018.7,017.6,000.0,027.2,020.0,17.4,0000.0,0004.27,0000.56,0000.27
2023-12-03 10:10:00,SystemResetWarning,0818.1,5.00,000.00,018.7,017.7,000.0,027.2,020.0,17.4,0000.0,0004.09,0000.57,0000.27
2023-12-03 10:11:00,SystemResetWarning,0818.1,5.00,000.00,018.7,017.7,000.0,027.2,020.0,17.5,0000.0,0003.96,0000.56,0000.26
2023-12-03 10:12:00,SystemResetWarning,0818.0,5.00,000.00,018.7,017.7,000.0,027.2,020.0,17.4,0000.0,0003.73,0000.54,0000.26
2023-12-03 10:13:00,SystemResetWarning,0818.0,5.00,000.00,018.7,017.7,000.0,027.2,020.0,17.4,0000.0,0002.70,0000.54,0000.26
2023-12-03 10:14:00,SystemResetWarning,0818.0,5.00,000.00,018.7,017.7,000.0,027.2,020.0,17.4,0000.0,0002.71,0000.55,0000.27
2023-12-03 10:15:00,SystemResetWarning,0818.0,5.00,000.00,018.7,017.7,000.0,027.2,020.0,17.4,0000.0,0002.69,0000.58,0000.27
2023-12-03 10:16:00,SystemResetWarning,0818.0,5.00,000.00,018.7,017.7,000.0,027.2,020.0,17.4,0000.0,0002.77,0000.59,0000.28
2023-12-03 10:17:00,SystemResetWarning,0818.0,5.00,000.00,018.7,017.7,000.0,027.2,020.0,17.5,0000.0,0002.74,0000.65,0000.28
2023-12-03 10:18:00,SystemResetWarning,0817.9,5.00,000.00,018.7,017.7,000.0,027.2,020.0,17.5,0000.0,0002.50,0000.67,0000.28
2023-12-03 10:19:00,SystemResetWarning,0817.9,5.00,000.00,018.7,017.7,000.0,027.2,020.0,17.6,0000.0,0003.21,0000.66,0000.28
2023-12-03 10:20:00,SystemResetWarning,0817.8,5.00,000.00,018.7,017.7,000.0,027.2,020.0,17.6,0000.0,0003.37,0000.70,0000.28
2023-12-03 10:21:00,SystemResetWarning,0817.8,5.00,000.00,018.7,017.7,000.0,027.2,020.0,17.6,0000.0,0003.43,0000.70,0000.28
2023-12-03 10:22:00,SystemResetWarning,0817.8,5.00,000.00,018.7,017.7,000.0,027.2,020.0,17.6,0000.0,0003.52,0000.70,0000.29
2023-12-03 10:23:00,SystemResetWarning,0817.8,5.00,000.00,018.7,017.7,000.0,027.2,020.0,17.6,0000.0,0003.75,0000.72,0000.30
2023-12-03 10:24:00,SystemResetWarning,0817.6,5.00,000.00,018.7,017.7,000.0,027.2,020.0,17.6,0000.0,0003.73,0000.73,0000.30
2023-12-03 10:25:00,SystemResetWarning,0817.6,5.00,000.00,018.7,017.7,000.0,027.2,020.0,17.7,0000.0,0003.70,0000.74,0000.30
2023-12-03 10:26:00,SystemResetWarning,0817.6,5.00,000.00,018.7,017.7,000.0,027.2,020.0,17.7,0000.0,0003.78,0000.77,0000.30
2023-12-03 10:27:00,SystemResetWarning,0817.6,5.00,000.00,018.7,017.7,000.0,027.2,020.0,17.7,0000.0,0003.60,0000.74,0000.30
2023-12-03 10:28:00,SystemResetWarning,0817.5,5.00,000.00,018.7,017.7,000.0,027.2,020.0,17.7,0000.0,0003.42,0000.68,0000.30
2023-12-03 10:29:00,SystemResetWarning,0817.5,5.00,000.00,018.7,017.7,000.0,027.2,020.0,17.7,0000.0,0004.38,0000.69,0000.30
2023-12-03 10:30:00,SystemResetWarning,0817.5,5.00,000.00,018.7,017.7,000.0,027.2,020.0,17.7,0000.0,0004.02,0000.72,0000.30
2023-12-03 10:31:00,SystemResetWarning,0817.6,5.00,000.00,018.7,017.7,000.0,027.2,020.0,17.7,0000.0,0004.04,0000.70,0000.31
2023-12-03 10:32:00,SystemResetWarning,0817.6,5.00,000.00,018.7,017.7,000.0,027.2,020.0,17.7,0000.0,0004.49,0000.68,0000.30
2023-12-03 10:33:00,SystemResetWarning,0817.8,5.00,000.00,018.7,017.7,000.0,027.2,020.0,17.7,0000.0,0004.65,0000.79,0000.31
2023-12-03 10:34:00,SystemResetWarning,0817.7,5.00,000.00,018.7,017.7,000.0,027.2,020.0,17.7,0000.0,0004.51,0000.82,0000.31
2023-12-03 10:35:00,SystemResetWarning,0817.6,5.00,000.00,018.7,017.7,000.0,027.2,020.0,17.7,0000.0,0004.59,0000.82,0000.31
2023-12-03 10:36:00,SystemResetWarning,0817.6,5.01,000.00,018.7,017.7,000.0,027.2,020.0,17.7,0000.0,0004.82,0000.88,0000.32
2023-12-03 10:37:00,SystemResetWarning,0817.6,5.00,000.00,018.7,017.7,000.0,027.2,020.0,17.7,0000.0,0004.79,0000.88,0000.32
2023-12-03 10:38:00,SystemResetWarning,0817.6,5.00,000.00,018.7,017.7,000.0,027.2,020.0,17.7,0000.0,0004.93,0000.91,0000.34
2023-12-03 10:39:00,SystemResetWarning,0817.6,5.00,000.00,018.7,017.7,000.0,027.2,020.0,17.7,0000.0,0004.97,0000.96,0000.34
2023-12-03 10:40:00,SystemResetWarning,0817.6,5.00,000.00,018.7,017.7,000.0,027.2,020.0,17.7,0000.0,0003.76,0000.99,0000.35
2023-12-03 10:41:00,SystemResetWarning,0817.7,5.00,000.00,018.7,017.7,000.0,027.2,020.0,17.7,0000.0,0003.76,0001.03,0000.36
2023-12-03 10:42:00,SystemResetWarning,0817.6,5.00,000.00,018.7,017.7,000.0,027.2,020.0,17.7,0000.0,0003.85,0001.09,0000.37
2023-12-03 10:43:00,SystemResetWarning,0817.6,5.00,000.00,018.7,017.8,000.0,027.2,020.0,17.7,0000.0,0003.45,0001.13,0000.37
2023-12-03 10:44:00,SystemResetWarning,0817.6,5.01,000.00,018.7,017.8,000.0,027.2,020.0,17.7,0000.0,0003.62,0001.07,0000.36
2023-12-03 10:45:00,SystemResetWarning,0817.6,5.01,000.00,018.7,017.8,000.0,027.2,020.0,17.7,0000.0,0003.91,0001.08,0000.36
2023-12-03 10:46:00,SystemResetWarning,0817.5,5.00,000.00,018.7,017.8,000.0,027.2,020.0,17.6,0000.0,0003.92,0001.06,0000.36
2023-12-03 10:47:00,SystemResetWarning,0817.6,5.00,000.00,018.7,017.8,000.0,027.2,020.0,17.6,0000.0,0004.37,0001.03,0000.36
2023-12-03 10:48:00,SystemResetWarning,0817.6,5.00,000.00,018.7,017.8,000.0,027.2,020.0,17.6,0000.0,0004.68,0001.02,0000.35
2023-12-03 10:49:00,SystemResetWarning,0817.6,5.00,000.00,018.7,017.8,000.0,027.2,020.0,17.6,0000.0,0005.91,0001.00,0000.35
2023-12-03 10:50:00,SystemResetWarning,0817.6,5.00,000.00,018.7,017.8,000.0,027.2,020.0,17.6,0000.0,0005.85,0000.98,0000.34
2023-12-03 10:51:00,SystemResetWarning,0817.6,5.00,000.00,018.7,017.8,000.0,027.2,020.0,17.6,0000.0,0006.01,0000.93,0000.34
2023-12-03 10:52:00,SystemResetWarning,0817.6,5.00,000.00,018.7,017.8,000.0,027.2,020.0,17.6,0000.0,0005.58,0000.89,0000.33
2023-12-03 10:53:00,SystemResetWarning,0817.6,5.00,000.00,018.7,017.8,000.0,027.2,020.0,17.6,0000.0,0005.59,0000.86,0000.32
2023-12-03 10:54:00,SystemResetWarning,0817.6,5.00,000.00,018.7,017.8,000.0,027.2,020.0,17.6,0000.0,0006.65,0000.84,0000.32
2023-12-03 10:55:00,SystemResetWarning,0817.5,5.00,000.00,018.7,017.8,000.0,027.2,020.0,17.6,0000.0,0006.60,0000.82,0000.32
2023-12-03 10:56:00,SystemResetWarning,0817.5,5.01,000.00,018.7,017.8,000.0,027.2,020.0,17.6,0000.0,0006.42,0000.80,0000.32
2023-12-03 10:57:00,SystemResetWarning,0817.5,5.01,000.00,018.7,017.8,000.0,027.2,020.0,17.6,0000.0,0006.35,0000.80,0000.32
2023-12-03 10:58:00,SystemResetWarning,0817.5,5.01,000.00,018.7,017.8,000.0,027.2,020.0,17.6,0000.0,0005.69,0000.78,0000.31
2023-12-03 10:59:00,SystemResetWarning,0817.6,5.00,000.00,018.7,017.8,000.0,027.2,020.0,17.6,0000.0,0005.35,0000.78,0000.32
